Regional Weather Roundup
Issued by NWS

Home | Current Version | Previous Version | Text Only | Print | Product List | Glossary On
Versions: 1 2 3 4 5 6 7 8 9 10 11 12 13 14 15 16 17 18 19 20 21 22 23 24 25 26 27 28 29 30 31 32 33 34 35 36 37 38 39 40 41 42 43 44 45 46 47 48 49 50
000
ASUS43 KBIS 291120
RWRND

NORTH DAKOTA REGIONAL WEATHER ROUNDUP
NATIONAL WEATHER SERVICE BISMARCK ND
500 AM CST THU JAN 29 2015

NOTE: "FAIR" INDICATES FEW OR NO CLOUDS BELOW 12,000 FEET WITH NO
SIGNIFICANT WEATHER AND/OR OBSTRUCTIONS TO VISIBILITY.


NDZ001>003-009>011-017-291200-
NORTHWEST NORTH DAKOTA

CITY           SKY/WX    TMP DP  RH WIND       PRES   REMARKS
WILLISTON      MOCLDY    24  19  81 NW10      30.43R WCI  14
MINOT          CLOUDY    23  17  78 NW16      30.36R WCI  10
MINOT AFB      CLOUDY    23  22  98 NW18      30.36R WCI   8
$$

NDZ018>021-031>035-040>046-291200-
SOUTHWEST NORTH DAKOTA

CITY           SKY/WX    TMP DP  RH WIND       PRES   REMARKS
BISMARCK       CLOUDY    28  22  78 N20       30.36R WCI  15
DICKINSON      CLOUDY    29  22  75 NW12      30.35R WCI  19
GARRISON         N/A     25  20  81 NW20      30.35R WCI  11
HETTINGER ARPT MOCLDY    29  22  75 NW17G23   30.37R WCI  17
$$

NDZ004>008-012>016-024-026-027-054-291200-
NORTHEAST NORTH DAKOTA

CITY           SKY/WX    TMP DP  RH WIND       PRES   REMARKS
GRAND FORKS    CLOUDY    19  13  77 N24G32    30.28R WCI   2
GRND FRKS AFB  CLOUDY    19  12  75 N17G24    30.29R WCI   4
DEVILS LAKE    CLOUDY    21  14  73 N21G29    30.29R WCI   6
$$

NDZ022-023-025-028>030-036>039-047>053-291200-
SOUTHEAST NORTH DAKOTA

CITY           SKY/WX    TMP DP  RH WIND       PRES   REMARKS
FARGO          CLOUDY    24  17  74 N23G35    30.25R WCI   9
JAMESTOWN      CLOUDY    26  21  81 NW23      30.27R WCI  11
$$




USA.gov is the U.S. government's official web portal to all federal, state and local government web resources and services.